Location: Munkebjergskolens Observatorium
(55.3864°N, 10.3987°E)
Time: 17:27:26
(UTC+02:00)

NOAA 18 - Pass Details

Date: 23 March 2023
Orbit: 838 x 860 km, 98.9° (Epoch: 02 June)

Event Time Altitude Azimuth Distance (km) Brightness Sun altitude
Exits shadow 23:59:17 13° 274° (W) 2,293 7.5 -33.2°
Maximum altitude 23:59:41 13° 278° (W) 2,288 7.6 -33.2°
Drops below altitude 10° 00:02:12 10° 305° (NW) 2,508 8.1 -33.2°
Sets 00:06:06 0° 333° (NNW) 3,453 9.3 -33.3°
